Vertical_Velocity
-1 0 -1 -1 -2 -4 -3 -3 -2 -1 -2 -1 0 0 -0 -3 -3 -1 -1 -1 -2 -2 -3 0 2 2 -1 1 -29 9 3 7 1 0 -9 -2 2 -0 -2 -1 5 3 -4 2 -3 0 -2
-1 -2 -2 -2 -2 -2 -2 -1 -0 0 1 0 -0 -1 -1 -1 -2 -2 -1 -1 1 2 2 0 -1 3 -0 1 4 -2 2 1 6 7 -1 -1 -14 -7 -3 -1 -1 -2 -1 -6 -2 -5 3
-1 0 1 -0 -2 -1 -1 -0 -1 -1 -1 -2 -2 -2 -1 -1 -1 -1 -2 -1 1 -1 -0 -1 4 5 5 -36 -2 1 -3 1 1 -1 1 4 1 2 -1 -0 1 -3 3 -1 -1 -2 -2
0 -2 -1 -0 -2 -1 -2 -2 -0 -1 -2 -1 -1 -6 -3 -2 -1 -3 -3 -1 -0 4 1 1 -1 1 -17 1 0 -5 6 3 2 4 7 10 16 7 4 2 -2 1 3 3 -5 2 -6
-1 -2 -0 -1 -3 -1 -2 -3 -1 -0 -1 -1 1 1 -4 1 -1 -2 -5 -4 -2 1 -0 2 2 2 -15 3 -1 -2 -4 -3 1 4 4 6 9 -1 4 1 -2 2 -2 2 -3 -1 -1
-1 0 1 -1 -3 -3 -2 -3 -3 -1 -1 -1 -1 2 -0 -5 -2 -2 -3 -3 0 2 1 0 6 6 -1 3 3 3 1 5 1 2 3 5 5 1 2 3 -15 -6 3 0 -1 -4 3
-1 -0 -1 -3 -4 -2 -2 -2 1 -0 -1 -2 -2 2 -0 -2 -4 -3 -14 -11 -14 0 8 5 6 6 -4 -3 9 -0 6 4 9 8 0 -0 2 -5 -12 -6 -5 3 3 1 -2 -3 4
0 -1 -3 -3 -2 -5 -3 -2 -0 -3 -3 -3 0 -1 -2 -4 1 -0 -0 -11 7 10 -7 -0 -3 -2 -1 5 -1 -7 9 3 3 -1 1 4 -5 -9 0 2 4 3 3 -9 -6 -0 6
-1 -2 -2 -3 -3 -2 -2 -2 -0 -1 0 -1 -2 -4 -5 -3 -1 2 -1 0 4 -0 7 -17 1 2 3 2 -2 -11 11 1 0 2 0 -1 -15 1 4 1 8 -2 1 -3 -1 -0 -0
-1 -2 -2 -2 -2 -1 -1 -4 2 -1 -1 -1 -3 1 -2 -14 2 -1 1 0 1 0 2 -11 0 3 -10 6 -3 6 -4 5 2 -3 -1 -1 -12 4 2 0 3 8 -4 2 2 2 -4
-1 -1 -0 -2 -2 -0 -3 -3 -5 -2 2 1 -1 -7 -1 -2 -4 -2 4 1 -0 1 -5 -2 -0 20 5 1 2 -16 18 2 -1 -3 1 -19 -0 0 4 -15 3 -19 1 -0 0 1 4
-1 -0 -0 -0 -0 1 -1 -3 -5 -4 -2 1 -1 -3 -2 2 5 6 1 1 -0 -2 -11 -6 4 -5 -8 -6 -2 -4 -9 -10 11 3 -1 -5 -4 3 -3 -2 0 -4 4 2 -0 -1 5
-2 -0 -1 -2 -1 -2 -3 -2 -2 -1 -3 -1 -3 -0 1 -2 -4 -2 0 -1 -9 -4 -8 -0 -1 -1 1 -1 -7 -3 -2 -5 -3 -5 -3 -9 -3 -1 2 6 -3 6 1 1 6 6 -12
-0 -1 -2 -1 -5 -2 -2 -2 -4 -3 -2 -3 -3 2 -2 -2 -0 -3 -6 -7 -7 2 1 -4 1 -2 -0 1 -3 -3 -3 -0 1 -1 0 3 -19 -3 -8 3 3 -2 4 -2 -2 -1 -8
-1 -0 -3 -3 -2 -1 -3 -4 -2 -2 -6 -1 -2 -3 -9 -8 -6 -0 -4 -7 2 3 6 3 -7 0 -2 -5 2 -2 1 1 0 0 -2 1 -6 -17 4 1 3 -7 3 -16 11 -1 5
-2 -2 -2 -1 -2 -4 -3 -2 -2 -3 -2 -2 -7 -9 -9 -8 -6 -5 -11 -0 -0 0 1 1 2 2 1 -1 -1 -1 -0 -6 1 1 -0 -5 0 0 -12 4 -3 4 1 1 4 3 2
-2 -1 -3 -2 -1 -1 -3 -2 -1 -2 -4 -4 -5 -4 -4 -3 -7 -9 -3 0 -1 -1 5 4 0 -0 -0 2 2 -1 -6 -10 -1 -1 1 1 1 -19 1 -1 5 -9 -0 -3 8 6 2
-1 -1 -1 0 -1 -1 -1 1 -5 -10 -2 -5 -4 -5 -2 -11 -18 1 -0 2 1 -2 -2 -1 2 1 1 -0 0 1 -1 -2 1 2 -0 -5 -2 0 -5 -10 1 2 1 -0 1 -6 -1
-2 -2 -1 -1 -3 -1 -1 0 -0 1 -6 -8 -3 -4 -0 -5 -4 -1 -3 -2 1 -1 -1 -1 -0 2 -1 1 0 2 -0 -3 2 -0 -2 -5 -4 -2 -14 -6 -6 -0 -1 0 1 0 0
-2 -3 -4 -2 1 -1 -0 -3 1 -2 -4 1 -1 -6 -6 -3 1 -0 0 -2 -2 -3 -1 0 -1 1 -1 -0 0 -4 -2 -4 -0 1 1 4 -1 -5 -6 -9 3 -2 -2 -2 1 2 2
-1 -3 -2 0 -0 -1 -1 -0 -3 -2 1 1 -3 -0 1 -3 -4 -0 1 1 -0 -2 -1 0 -3 1 7 1 -2 -0 -2 -9 -5 -4 -1 -2 -0 0 -2 -1 -0 3 1 0 -4 4 -0
-3 -2 1 -1 2 -0 -2 -4 -4 3 1 -5 -1 -1 -2 -2 1 1 -2 -3 1 -4 4 -5 3 -2 2 3 1 -2 8 0 1 -5 0 -1 -5 1 -5 -1 -2 -2 -1 -0 -0 -1 -2
-1 -0 1 -1 -2 -1 -4 -3 -2 -0 -4 -4 -2 1 5 -4 -1 -3 -3 -3 -2 3 -7 -2 6 6 0 -3 3 -5 2 -1 -0 7 -1 3 1 1 -4 -0 2 -12 6 2 2 -0 4
-3 -1 1 0 -2 -2 0 -0 -1 -3 2 -3 2 2 4 -5 0 -3 0 5 -0 -2 1 -7 5 -0 -7 -1 -5 2 3 1 2 -3 3 1 1 1 -2 -3 -0 9 1 -0 -4 4 -1
-1 -1 -2 -3 -1 -1 -2 -0 -1 2 -3 -3 1 11 4 -1 0 -2 1 -0 0 -3 1 2 -3 9 2 1 -2 -6 -7 -7 0 1 -2 1 0 -0 -2 -0 4 3 0 0 2 6 3
-1 -0 0 -1 -2 0 -0 0 -1 -2 -1 -1 -1 5 6 8 -7 5 2 1 -0 -0 -4 -1 -11 3 -0 1 1 0 -1 -0 -3 -10 -2 -4 -1 -5 -2 -2 -0 6 -2 0 1 -2 3
0 -0 -2 -1 -1 1 -0 0 -1 2 3 -2 -1 7 8 7 6 4 2 10 2 -1 -0 -0 -4 -8 2 -0 -0 1 -1 2 -5 -0 -3 -4 -5 -1 -1 0 2 1 -1 3 -7 -4 1
-2 -3 -1 -0 2 1 3 -2 -3 3 3 -4 0 4 4 14 0 7 0 0 -3 -3 1 -8 -7 -6 -4 -5 -2 -0 -1 3 -4 4 3 0 2 0 -3 -2 -1 1 -7 -11 1 1 3
-5 -0 -1 1 3 1 -1 1 -1 1 -1 -3 -5 1 4 2 3 9 -1 2 6 11 8 -1 2 1 0 -0 -2 -2 -2 -3 2 1 -3 -6 0 2 -0 1 0 5 2 5 2 2 -0
Height
1537 1534 1531 1528 1524 1520 1517 1513 1509 1505 1501 1497 1493 1488 1484 1480 1475 1470 1466 1461 1457 1453 1450 1447 1444 1442 1441 1440 1424 1426 1425 1424 1425 1426 1428 1434 1436 1438 1441 1438 1440 1438 1432 1430 1430 1431 1430
1536 1534 1531 1526 1523 1519 1515 1511 1507 1503 1499 1495 1492 1487 1482 1477 1472 1467 1462 1457 1452 1447 1442 1439 1436 1436 1436 1435 1420 1419 1419 1420 1423 1423 1423 1428 1430 1432 1434 1434 1435 1428 1427 1425 1426 1424 1426
1535 1533 1530 1526 1522 1518 1515 1511 1507 1502 1497 1493 1488 1484 1479 1473 1468 1463 1458 1453 1448 1442 1437 1434 1432 1432 1430 1412 1416 1416 1417 1419 1421 1422 1423 1424 1428 1430 1430 1432 1427 1426 1428 1423 1420 1419 1420
1535 1532 1528 1525 1521 1517 1514 1509 1505 1500 1495 1490 1485 1479 1475 1470 1463 1457 1452 1448 1443 1437 1433 1429 1428 1429 1421 1413 1413 1412 1415 1416 1418 1420 1423 1425 1427 1428 1427 1426 1424 1425 1424 1425 1406 1411 1413
1533 1530 1527 1524 1520 1515 1511 1506 1502 1498 1493 1488 1482 1477 1471 1465 1459 1451 1445 1443 1438 1433 1430 1429 1428 1427 1415 1410 1410 1410 1412 1414 1417 1419 1420 1423 1426 1423 1425 1428 1433 1427 1419 1416 1410 1404 1407
1532 1529 1526 1522 1518 1513 1509 1504 1500 1495 1490 1485 1480 1474 1468 1462 1456 1447 1441 1439 1434 1431 1430 1429 1428 1430 1415 1413 1410 1409 1408 1410 1413 1415 1418 1420 1420 1420 1422 1426 1409 1408 1414 1410 1407 1402 1403
1531 1528 1524 1520 1516 1512 1508 1503 1498 1494 1488 1483 1478 1472 1466 1461 1454 1446 1440 1435 1436 1433 1431 1430 1428 1424 1419 1415 1412 1408 1406 1407 1409 1412 1415 1413 1417 1403 1402 1398 1395 1404 1408 1399 1395 1397 1400
1531 1527 1523 1519 1515 1511 1506 1501 1496 1492 1486 1481 1476 1469 1462 1457 1452 1448 1443 1443 1452 1451 1430 1421 1418 1419 1416 1415 1411 1407 1409 1408 1406 1408 1412 1415 1397 1393 1397 1398 1399 1401 1401 1388 1394 1396 1397
1529 1525 1521 1517 1513 1509 1505 1500 1495 1491 1486 1480 1473 1466 1459 1454 1450 1450 1446 1449 1451 1449 1443 1421 1418 1416 1416 1415 1412 1407 1409 1406 1405 1407 1408 1404 1392 1385 1396 1395 1397 1393 1390 1390 1389 1393 1391
1527 1524 1520 1516 1512 1508 1504 1499 1494 1490 1485 1478 1471 1465 1459 1453 1452 1449 1448 1448 1446 1446 1447 1424 1418 1421 1420 1415 1413 1408 1407 1409 1405 1403 1404 1401 1394 1391 1393 1389 1397 1390 1383 1386 1388 1395 1398
1526 1522 1518 1515 1512 1507 1502 1499 1494 1490 1484 1478 1471 1463 1458 1453 1455 1451 1451 1445 1443 1446 1448 1422 1425 1427 1423 1422 1414 1414 1411 1408 1403 1401 1400 1391 1387 1389 1390 1384 1390 1375 1382 1381 1384 1388 1390
1525 1521 1517 1515 1510 1507 1503 1499 1494 1489 1483 1477 1470 1464 1460 1457 1454 1452 1447 1445 1445 1447 1454 1434 1433 1434 1426 1422 1419 1416 1414 1411 1409 1403 1399 1391 1389 1389 1382 1379 1381 1378 1378 1377 1381 1388 1388
1523 1519 1516 1513 1510 1507 1503 1498 1494 1489 1483 1477 1471 1467 1462 1459 1454 1450 1447 1444 1453 1453 1445 1448 1445 1439 1435 1435 1429 1425 1422 1419 1422 1417 1412 1401 1388 1379 1379 1377 1374 1375 1381 1382 1375 1381 1363
1522 1519 1516 1513 1510 1507 1503 1499 1494 1489 1483 1477 1473 1469 1465 1461 1456 1449 1445 1447 1455 1458 1459 1454 1448 1441 1436 1437 1435 1431 1429 1426 1423 1423 1423 1417 1402 1391 1385 1388 1383 1373 1368 1372 1362 1360 1356
1521 1518 1515 1513 1510 1506 1503 1499 1495 1490 1484 1479 1475 1471 1466 1462 1457 1451 1449 1460 1463 1465 1463 1455 1448 1446 1442 1440 1440 1435 1434 1427 1424 1423 1427 1421 1405 1395 1388 1385 1383 1378 1367 1354 1356 1353 1368
1520 1518 1515 1513 1510 1506 1503 1499 1494 1490 1484 1478 1475 1472 1469 1465 1461 1455 1456 1463 1466 1465 1462 1457 1456 1448 1448 1443 1442 1441 1435 1422 1421 1421 1421 1419 1416 1397 1388 1383 1374 1376 1375 1362 1349 1350 1345
1520 1517 1515 1512 1509 1506 1503 1499 1495 1489 1485 1480 1475 1473 1472 1468 1464 1461 1475 1470 1467 1465 1462 1460 1457 1455 1450 1448 1442 1440 1432 1422 1419 1419 1419 1416 1415 1408 1394 1386 1387 1381 1375 1382 1377 1348 1334
1519 1518 1516 1513 1510 1506 1503 1499 1495 1490 1486 1480 1477 1477 1474 1470 1469 1472 1477 1473 1468 1463 1461 1458 1454 1449 1446 1446 1445 1439 1430 1423 1419 1420 1422 1416 1423 1414 1401 1387 1382 1385 1389 1392 1388 1379 1375
1520 1518 1516 1513 1510 1507 1502 1499 1495 1491 1486 1482 1479 1477 1475 1473 1480 1479 1475 1472 1468 1464 1460 1457 1456 1450 1448 1447 1447 1435 1429 1421 1420 1421 1419 1415 1418 1418 1397 1388 1378 1382 1384 1387 1384 1379 1375
1520 1518 1516 1513 1509 1506 1503 1499 1496 1492 1488 1484 1482 1482 1477 1476 1478 1480 1478 1471 1466 1463 1460 1458 1454 1449 1448 1443 1441 1439 1428 1421 1419 1418 1412 1410 1424 1418 1422 1402 1397 1397 1402 1400 1383 1383 1393
1520 1518 1516 1513 1509 1506 1502 1499 1496 1492 1489 1486 1485 1486 1485 1483 1479 1479 1479 1473 1469 1464 1458 1456 1453 1450 1449 1443 1437 1432 1426 1418 1413 1411 1409 1413 1416 1411 1401 1400 1403 1421 1419 1421 1412 1409 1405
1520 1518 1515 1512 1508 1505 1502 1498 1495 1491 1488 1487 1488 1488 1485 1481 1477 1475 1473 1474 1468 1465 1464 1456 1453 1447 1446 1443 1440 1429 1428 1420 1415 1410 1409 1411 1405 1401 1398 1393 1409 1438 1433 1432 1436 1437 1434
1520 1518 1514 1510 1506 1504 1500 1497 1493 1490 1487 1487 1489 1488 1485 1478 1475 1477 1472 1466 1464 1463 1458 1454 1449 1446 1441 1436 1434 1426 1417 1413 1413 1412 1405 1404 1399 1398 1406 1387 1408 1441 1456 1451 1458 1460 1458
1519 1516 1513 1509 1506 1502 1499 1496 1493 1490 1489 1488 1487 1486 1484 1476 1474 1470 1465 1462 1460 1459 1457 1449 1447 1447 1437 1430 1421 1410 1406 1406 1406 1406 1407 1400 1396 1392 1404 1402 1412 1464 1468 1464 1467 1472 1474
1518 1515 1512 1508 1505 1502 1499 1496 1493 1490 1488 1486 1483 1483 1479 1473 1469 1464 1460 1457 1455 1453 1453 1448 1444 1443 1435 1428 1422 1424 1413 1408 1406 1409 1412 1413 1405 1392 1396 1438 1458 1457 1475 1478 1476 1480 1481
1517 1514 1511 1508 1505 1501 1497 1495 1492 1488 1485 1482 1479 1478 1477 1470 1465 1462 1458 1452 1450 1453 1451 1447 1444 1438 1436 1431 1427 1435 1432 1416 1412 1412 1415 1420 1422 1417 1415 1413 1445 1479 1481 1480 1480 1487 1486
1516 1513 1510 1506 1503 1499 1496 1492 1489 1486 1483 1480 1477 1476 1474 1469 1469 1461 1462 1461 1456 1455 1455 1451 1448 1441 1438 1442 1434 1429 1428 1435 1456 1461 1455 1454 1461 1469 1464 1473 1482 1486 1480 1474 1476 1496 1488
1515 1512 1508 1504 1500 1495 1491 1487 1485 1484 1480 1478 1475 1474 1473 1471 1476 1471 1470 1470 1466 1464 1464 1457 1451 1449 1446 1448 1449 1445 1446 1453 1467 1482 1482 1494 1498 1491 1481 1476 1477 1487 1480 1488 1498 1494 1491
1513 1509 1505 1500 1495 1491 1487 1484 1482 1481 1478 1476 1474 1472 1471 1471 1482 1478 1476 1475 1473 1472 1468 1463 1463 1459 1455 1451 1452 1449 1460 1466 1472 1480 1489 1498 1502 1499 1500 1500 1500 1498 1496 1497 1495 1493 1491